[[{"header":{"parameterUnit":"m.s-1","parameterCategory":1,"la1":30.2991,"la2":30.254,"lo1":-89.0895,"lo2":-89.0444,"dy":0.0017,"dx":0.0017,"nx":28,"ny":28,"refTime":"2025-04-05T21:00:00:Z","depth":0,"parameterNumber":2,"parameterNumberName":"U-component_of_WINDS"},"data":[0,0,0,0,0,0,0,0,0,0,0,0,0,0,0,0,0,0,0,0,0,0,0,0,0,0,0,0,0,0,0,0,0,0,0,0,0,0,0,0,0,0,0,0,0,0,0,0,0,0,0,0,0,0,0,0,0,0,4.4763,4.4764,0,4.4828,4.4829,4.4829,4.4763,4.476,4.4757,4.4755,4.4822,4.4826,4.483,0,0,0,0,0,0,0,0,0,0,0,0,0,4.4586,4.4589,4.4763,4.4764,4.4765,4.4828,4.4829,4.4829,4.4763,4.476,4.4757,4.4754,4.4821,4.4826,4.4831,0,0,0,0,0,0,0,0,0,0,0,0,0,4.4658,4.4591,4.4763,4.4739,4.4738,4.4828,4.4829,4.483,4.4764,4.476,4.4756,4.4752,4.4819,4.4825,4.4832,4.4948,0,0,4.4851,4.4854,0,0,0,0,0,0,0,0,4.4654,4.4664,4.4742,4.4741,4.474,4.4783,4.4791,4.4869,4.4765,4.4754,4.4755,4.475,4.4813,4.4819,4.484,4.4951,4.4954,4.4851,4.4855,4.4858,4.486,0,0,0,0,0,0,0,4.4649,4.4661,4.4789,4.4743,4.4742,4.4727,4.4732,4.4805,4.4804,4.4755,4.475,4.4758,4.4811,4.4834,4.4841,4.4955,4.4851,4.4857,4.4861,4.4863,4.517,4.5174,0,0,0,0,0,0,4.4646,4.4658,4.4787,4.4791,4.4686,4.4733,4.4739,4.4773,4.4803,4.4804,4.4762,4.4755,4.4825,4.4834,4.4843,4.4984,4.4858,4.4864,4.4867,4.5166,4.5171,4.5176,0,0,0,0,0,0,4.4643,4.4658,4.4784,4.4723,4.4738,4.474,4.4778,4.4776,4.4799,4.4809,4.4808,4.4785,4.4822,4.4834,4.4923,4.4985,4.4867,4.4872,4.5161,4.5167,4.5173,4.5265,0,0,0,0,0,0,4.4638,4.4658,4.4701,4.4724,4.4741,4.4862,4.4782,4.4781,4.481,4.4802,4.483,4.4831,4.482,4.4914,4.493,4.4992,4.4877,4.5155,4.5164,4.5171,4.5256,4.5274,4.5289,0,0,0,0,0,4.4632,4.4723,4.4703,4.4719,4.4795,4.4866,4.4876,4.4861,4.4815,4.4859,4.4866,4.483,4.4976,4.4924,4.4941,4.5005,4.5151,4.5161,4.5171,4.5249,4.527,4.5288,0,0,0,0,0,0,4.4706,4.4726,4.4704,4.4805,4.4835,4.4855,4.4909,4.4883,4.4926,4.4917,4.4897,4.4904,4.4999,4.5011,4.4953,4.5122,4.5056,4.507,4.511,4.5131,4.5146,4.5141,4.4882,0,0,0,0,0,4.4734,4.4789,4.4804,4.4892,4.4908,4.4907,4.4937,4.4923,4.4953,4.4965,4.4978,4.5009,4.5062,4.5097,4.5146,4.5258,4.5265,4.5312,4.5328,4.5341,4.5353,4.5417,4.5438,4.5208,4.5208,4.5208,0,0,4.4792,4.481,4.4846,4.4908,4.4929,4.4988,4.4918,4.4982,4.5026,4.4975,4.506,4.5072,4.5105,4.5207,4.5253,4.522,4.5419,4.5354,4.5364,4.5369,4.5429,4.5451,4.547,4.5215,4.5214,4.5213,0,0,4.4929,4.4948,4.5025,4.5048,4.5082,4.5081,4.51,4.5125,4.5131,4.5216,4.518,4.5233,4.5324,4.535,4.5375,4.5528,4.5497,4.5544,4.5628,4.5691,4.5709,4.5725,4.5781,4.5802,4.5556,4.5557,4.5557,0,4.4998,4.5084,4.5068,4.5136,4.5166,4.5123,4.5202,4.5226,4.5274,4.5296,4.5259,4.5374,4.5394,4.5503,4.5541,4.5562,4.5585,4.554,4.5708,4.5724,4.5738,4.5792,4.5813,4.5562,4.5562,4.5561,4.556,0,4.5168,4.523,4.5288,4.5336,4.5372,4.5446,4.5442,4.5481,4.5465,4.5469,4.5559,4.5581,4.5636,4.5661,4.5645,4.577,4.5749,4.571,4.5644,4.5766,4.5816,4.5836,4.557,4.5568,4.5567,4.5565,0,0,4.535,4.5392,4.5414,4.5437,4.5472,4.552,4.5593,4.5647,4.5681,4.5717,4.5779,4.5859,4.5825,4.5854,4.5842,4.5897,4.602,4.5852,4.5853,4.5884,4.6161,4.619,4.6213,4.6,4.6004,4.6007,4.6158,0,4.5489,4.5615,4.5605,4.5725,4.5783,4.5746,4.581,4.584,4.5847,4.5898,4.5905,4.5963,4.5913,4.593,4.5983,4.5993,4.6075,4.5982,4.6059,4.6062,4.6052,4.6239,4.6269,4.641,4.6178,4.6181,4.6183,0,4.5667,4.5711,4.5837,4.5868,4.5892,4.5949,4.5999,4.6048,4.6083,4.6084,4.6119,4.6099,4.6175,4.6108,4.6214,4.6152,4.6183,4.6194,4.6199,4.6205,4.613,4.6252,4.6455,4.6477,4.6214,4.6211,4.6209,0,4.579,4.588,4.5968,4.5988,4.6026,4.6068,4.6085,4.6116,4.6151,4.6195,4.6218,4.6271,4.63,4.6343,4.6339,4.629,4.6448,4.638,4.6453,4.6453,4.6487,4.6485,4.6699,4.6507,4.6506,4.6506,4.6506,0,4.5946,4.6025,4.6023,4.6077,4.6166,4.6154,4.6243,4.6256,4.6285,4.6342,4.6314,4.6369,4.636,4.6416,4.6413,4.6503,4.6516,4.6521,4.652,4.6524,4.6523,4.6544,4.6534,4.6512,4.651,4.6509,4.6508,0,4.6096,4.6098,4.6192,4.6221,4.6231,4.6295,4.632,4.6373,4.6379,4.6452,4.6469,4.6478,4.6543,4.6544,4.6617,4.6616,4.6726,4.6713,4.6715,4.6712,4.6786,4.6779,4.7021,4.7053,4.6839,4.6841,4.6843,0,4.6196,4.6256,4.6293,4.6329,4.635,4.6409,4.6445,4.6437,4.6475,4.6522,4.657,4.6632,4.6681,4.6787,4.6801,4.6859,4.6847,4.6928,4.6855,4.6859,4.685,4.6847,4.6854,4.6942,4.6944,4.6946,4.6948,0,4.6373,4.6372,4.6424,4.6478,4.6522,4.6564,4.6603,4.6635,4.6632,4.6677,4.6743,4.6781,4.6858,4.6921,4.6978,4.6997,4.6974,4.6971,4.6991,4.6996,4.6995,4.6998,4.6754,4.6965,4.6963,4.6962,4.6961,4.6961,4.6501,4.6555,4.659,4.665,4.6679,4.6717,4.6769,4.6782,4.6837,4.6898,4.6891,4.6966,4.7003,4.7076,4.7102,4.7161,4.7133,4.7162,4.7169,4.7177,4.7185,4.6986,4.7171,4.7171,4.717,4.717,4.717,0,4.6678,4.67,4.6755,4.6812,4.686,4.6834,4.6877,4.6919,4.6985,4.7021,4.7071,4.7149,4.7212,4.7233,4.7294,4.7338,4.7328,4.7354,4.7351,4.7356,4.7206,4.7183,4.7361,4.7361,4.7361,4.7361,4.736,4.736,4.6776,4.6865,4.6869,4.6974,4.6995,4.7068,4.7095,4.7131,4.716,4.7249,4.73,4.7314,4.7346,4.7409,4.7466,4.7471,4.7496,4.7526,4.7527,4.7386,4.7366,4.7348,4.7326,4.7531,4.7532,4.7672,4.7673,4.7674]},{"header":{"parameterUnit":"m.s-1","parameterCategory":1,"la1":30.2991,"la2":30.254,"lo1":-89.0895,"lo2":-89.0444,"dy":0.0017,"dx":0.0017,"nx":28,"ny":28,"refTime":"2025-04-05T21:00:00:Z","depth":0,"parameterNumber":3,"parameterNumberName":"V-component_of_WINDS"},"data":[0,0,0,0,0,0,0,0,0,0,0,0,0,0,0,0,0,0,0,0,0,0,0,0,0,0,0,0,0,0,0,0,0,0,0,0,0,0,0,0,0,0,0,0,0,0,0,0,0,0,0,0,0,0,0,0,0,0,-5.3099,-5.3101,0,-5.3316,-5.3318,-5.3321,-5.3339,-5.3337,-5.3335,-5.3333,-5.3557,-5.3565,-5.3573,0,0,0,0,0,0,0,0,0,0,0,0,0,-5.2702,-5.2709,-5.3098,-5.3101,-5.3104,-5.3316,-5.3319,-5.3322,-5.334,-5.3337,-5.3334,-5.3331,-5.3554,-5.3564,-5.3574,0,0,0,0,0,0,0,0,0,0,0,0,0,-5.2893,-5.2712,-5.3098,-5.3138,-5.3144,-5.3315,-5.3319,-5.3322,-5.334,-5.3337,-5.3333,-5.333,-5.3551,-5.3563,-5.3575,-5.3721,0,0,-5.3612,-5.3618,0,0,0,0,0,0,0,0,-5.2882,-5.2907,-5.313,-5.3136,-5.3143,-5.3297,-5.3261,-5.3456,-5.3341,-5.3266,-5.3332,-5.3328,-5.3473,-5.3492,-5.354,-5.3731,-5.3741,-5.3613,-5.3621,-5.3626,-5.363,0,0,0,0,0,0,0,-5.2869,-5.2898,-5.3184,-5.3133,-5.3141,-5.3147,-5.317,-5.3298,-5.3387,-5.3272,-5.3274,-5.33,-5.3476,-5.3528,-5.3546,-5.3744,-5.3613,-5.3624,-5.3632,-5.3636,-5.4069,-5.4073,0,0,0,0,0,0,-5.2847,-5.2887,-5.3178,-5.3191,-5.3001,-5.3157,-5.3183,-5.3251,-5.3385,-5.3402,-5.3302,-5.33,-5.3509,-5.3531,-5.3554,-5.3735,-5.3626,-5.3638,-5.3645,-5.4065,-5.407,-5.4074,0,0,0,0,0,0,-5.2839,-5.2873,-5.3169,-5.304,-5.3078,-5.3167,-5.3244,-5.3257,-5.3309,-5.3408,-5.3424,-5.3339,-5.3507,-5.3536,-5.368,-5.3743,-5.3643,-5.3654,-5.406,-5.4066,-5.4072,-5.4097,0,0,0,0,0,0,-5.2827,-5.287,-5.2925,-5.3041,-5.3084,-5.329,-5.3248,-5.3264,-5.333,-5.3329,-5.3447,-5.3463,-5.3507,-5.3661,-5.3692,-5.3758,-5.3664,-5.4054,-5.4063,-5.407,-5.4091,-5.4103,-5.4114,0,0,0,0,0,-5.2813,-5.2923,-5.2928,-5.2963,-5.3155,-5.3294,-5.3319,-5.3366,-5.3335,-5.3392,-5.3456,-5.3459,-5.3731,-5.3676,-5.371,-5.3781,-5.4051,-5.406,-5.4069,-5.4086,-5.4101,-5.4114,0,0,0,0,0,0,-5.2813,-5.2939,-5.2945,-5.3096,-5.3184,-5.3296,-5.3369,-5.338,-5.3479,-5.3474,-5.3529,-5.3556,-5.3698,-5.3754,-5.369,-5.3931,-5.3888,-5.3904,-5.3888,-5.3904,-5.3915,-5.3898,-5.3674,0,0,0,0,0,-5.283,-5.2931,-5.3036,-5.3159,-5.3203,-5.3279,-5.3341,-5.337,-5.3464,-5.3501,-5.3575,-5.3666,-5.3773,-5.3841,-5.3944,-5.4099,-5.4126,-5.4165,-5.4177,-5.4186,-5.4199,-5.4288,-5.4307,-5.4105,-5.4105,-5.4104,0,0,-5.2867,-5.2949,-5.3009,-5.3161,-5.3233,-5.3337,-5.331,-5.3421,-5.35,-5.3518,-5.3658,-5.3716,-5.3822,-5.3972,-5.4042,-5.4023,-5.4262,-5.4198,-5.4204,-5.4213,-5.4299,-5.4318,-5.4335,-5.4111,-5.411,-5.4109,0,0,-5.2988,-5.306,-5.3171,-5.3243,-5.3352,-5.3402,-5.3429,-5.3541,-5.358,-5.3721,-5.3738,-5.3833,-5.4014,-5.4089,-5.4151,-5.4304,-5.4311,-5.4336,-5.4396,-5.4481,-5.4497,-5.4512,-5.4567,-5.4587,-5.4349,-5.435,-5.435,0,-5.3021,-5.3178,-5.3227,-5.3338,-5.3406,-5.3427,-5.3541,-5.361,-5.3747,-5.3793,-5.3771,-5.4,-5.4073,-5.4242,-5.4279,-5.4328,-5.4362,-5.4322,-5.4491,-5.4506,-5.452,-5.4574,-5.4595,-5.4352,-5.4352,-5.4351,-5.4351,0,-5.3213,-5.3322,-5.3399,-5.3531,-5.3607,-5.372,-5.3787,-5.3858,-5.3882,-5.3935,-5.408,-5.4168,-5.429,-5.4333,-5.4356,-5.4506,-5.4491,-5.4479,-5.4437,-5.4541,-5.4592,-5.4613,-5.4355,-5.4354,-5.4354,-5.4353,0,0,-5.3339,-5.3498,-5.3525,-5.3586,-5.3709,-5.3795,-5.3909,-5.4029,-5.409,-5.4184,-5.4283,-5.4437,-5.4427,-5.4497,-5.453,-5.4605,-5.4722,-5.4584,-5.4588,-5.4607,-5.4895,-5.4904,-5.4926,-5.4728,-5.4732,-5.4736,-5.4886,0,-5.3474,-5.3677,-5.3725,-5.39,-5.4002,-5.4026,-5.4126,-5.4213,-5.4266,-5.4362,-5.4421,-5.453,-5.4508,-5.4551,-5.4626,-5.4692,-5.4781,-5.4682,-5.4821,-5.4826,-5.4794,-5.4953,-5.4962,-5.51,-5.4907,-5.491,-5.4913,0,-5.3659,-5.3758,-5.3942,-5.4054,-5.4099,-5.4187,-5.4302,-5.4393,-5.4493,-5.4527,-5.4606,-5.4632,-5.4754,-5.4707,-5.4876,-5.4807,-5.4868,-5.4909,-5.4916,-5.4931,-5.4875,-5.4973,-5.5145,-5.5166,-5.4945,-5.4942,-5.494,0,-5.3733,-5.3912,-5.4047,-5.4098,-5.4231,-5.4293,-5.4352,-5.4448,-5.4518,-5.4619,-5.4665,-5.4778,-5.4841,-5.4929,-5.4986,-5.4945,-5.5151,-5.5108,-5.5184,-5.5182,-5.5225,-5.5222,-5.541,-5.5264,-5.5263,-5.5263,-5.5263,0,-5.3879,-5.3992,-5.4082,-5.4164,-5.4292,-5.4347,-5.4472,-5.4531,-5.4617,-5.4713,-5.4741,-5.483,-5.4899,-5.4999,-5.5044,-5.5179,-5.5206,-5.5238,-5.5249,-5.5236,-5.5232,-5.5276,-5.5268,-5.5269,-5.5267,-5.5266,-5.5265,0,-5.3983,-5.4048,-5.4196,-5.431,-5.4342,-5.4431,-5.453,-5.4612,-5.4666,-5.4787,-5.4819,-5.4905,-5.5024,-5.5089,-5.5238,-5.5269,-5.5419,-5.5425,-5.5385,-5.539,-5.5463,-5.5455,-5.5686,-5.572,-5.555,-5.5552,-5.5553,0,-5.4072,-5.4159,-5.4283,-5.4349,-5.4409,-5.4514,-5.4586,-5.4645,-5.4718,-5.484,-5.4908,-5.5028,-5.5128,-5.5317,-5.5394,-5.5509,-5.5517,-5.5591,-5.5535,-5.552,-5.552,-5.5514,-5.5524,-5.56,-5.5601,-5.5603,-5.5604,0,-5.4224,-5.4252,-5.4354,-5.4467,-5.4552,-5.4644,-5.4735,-5.4788,-5.4862,-5.4944,-5.5066,-5.5143,-5.5296,-5.5416,-5.5537,-5.5599,-5.5615,-5.5621,-5.5645,-5.5632,-5.5606,-5.5622,-5.5412,-5.5615,-5.5614,-5.5613,-5.5613,-5.5612,-5.4324,-5.4403,-5.4503,-5.4616,-5.4691,-5.4777,-5.486,-5.4925,-5.5028,-5.5156,-5.5185,-5.5314,-5.5415,-5.558,-5.5645,-5.5748,-5.5734,-5.5768,-5.5777,-5.5785,-5.5788,-5.559,-5.577,-5.577,-5.577,-5.5769,-5.5769,0,-5.4478,-5.4544,-5.4647,-5.4775,-5.4864,-5.4871,-5.4973,-5.5048,-5.516,-5.5252,-5.535,-5.5491,-5.5608,-5.5695,-5.5815,-5.5881,-5.5891,-5.591,-5.5906,-5.5921,-5.5793,-5.576,-5.59,-5.59,-5.59,-5.59,-5.59,-5.59,-5.4569,-5.4704,-5.4744,-5.4917,-5.4983,-5.5109,-5.5167,-5.5247,-5.5321,-5.5477,-5.5574,-5.563,-5.5721,-5.5848,-5.5956,-5.5979,-5.6022,-5.6041,-5.6064,-5.5943,-5.5929,-5.5916,-5.5886,-5.605,-5.605,-5.6184,-5.6185,-5.6186]}]]